Location: Moy Burn
(57.3833°N, 4.0667°W)
Time: 09:13:00
(UTC+00:00)

NOSS 3-2 (A) - Pass Details

Date: 08 August 2020
Orbit: 796 x 1412 km, 63.4° (Epoch: 16 September)

Event Time Altitude Azimuth Distance (km) Brightness Sun altitude
Rises 21:26:23 0° 184° (S) 3,394 5.9 -8.3°
Reaches altitude 10° 21:29:03 10° 173° (S) 2,524 5.2 -8.6°
Maximum altitude 21:33:53 28° 116° (ESE) 1,714 4.3 -9.0°
Drops below altitude 10° 21:39:16 10° 62° (ENE) 2,845 5.8 -9.4°
Sets 21:42:28 0° 51° (NE) 3,912 6.7 -9.7°
